Location: Caixon
(43.4106°N, 0.0273°E)
Time: 16:01:59
(UTC+00:00)

Cosmos 1125 Rocket - Pass Details

Date: 16 October 2021
Orbit: 758 x 779 km, 74.0° (Epoch: 29 November)

Event Time Altitude Azimuth Distance (km) Brightness Sun altitude
Rises 04:36:48 0° 336° (NNW) 3,229 6.6 -18.6°
Reaches altitude 10° 04:39:11 10° 333° (NNW) 2,298 5.8 -18.2°
Maximum altitude 04:44:19 63° 254° (WSW) 847 3.4 -17.2°
Drops below altitude 10° 04:49:25 10° 174° (S) 2,280 6.0 -16.3°
Sets 04:51:48 0° 171° (S) 3,202 6.8 -15.9°
